CAPE
757 876 826 1278 747 305 312 348 47 88 98 47 15 60 74 51 202 58 201 173 303 357 491 775 1622 1620 1065 1301 1722 1556 1546 1658 1625 1808 1661 1892 1643 1806 1696 1711 1917 1827 1836 1497 1381 1438 1437 1494 1297
1209 807 1777 1886 377 71 248 228 194 80 91 79 54 85 86 95 14 84 180 180 294 332 627 925 1476 1795 1223 1534 1014 1321 1203 1561 1820 1724 1821 1835 1936 1853 1243 1296 1642 1627 1694 1372 1322 1291 1191 1194 1272
779 1572 1864 646 121 94 115 218 269 203 108 102 158 84 139 87 45 97 200 301 312 308 646 888 1459 1378 1598 1604 1366 1140 1183 1459 1559 1741 1588 1765 1471 1389 1389 1723 1715 1535 1431 1452 1440 1433 1275 1325 1215
1816 1851 1711 443 144 239 177 305 300 271 196 116 112 118 74 117 9 91 174 313 309 408 669 911 1498 1517 1476 933 807 1862 742 890 878 968 1094 1086 1149 1538 1819 1716 1709 1592 1532 1488 1455 1495 1437 1254 1285
1510 1521 448 160 208 390 246 361 319 370 294 88 107 102 123 99 52 141 203 207 238 213 373 1051 1264 1427 1313 868 787 1827 956 1336 1905 1871 1542 1640 1715 1593 1804 1696 1513 1383 1319 1305 1403 1446 1385 1400 1346
1224 910 192 125 228 594 536 401 364 176 334 145 135 70 71 73 81 100 238 205 129 406 1076 741 1236 590 356 569 1464 1613 1215 1395 1492 1763 1945 1865 1875 1475 1259 1106 948 973 994 1001 1035 1120 1243 1506 1481
805 504 173 110 222 248 505 521 211 286 300 269 153 181 135 50 47 75 119 184 621 612 1018 965 840 231 1200 1453 1670 1984 1909 1808 1482 1185 1204 1298 1144 1034 1093 1217 1127 1135 1279 1353 1343 1361 1495 1656 1847
624 501 130 80 82 314 621 494 530 451 277 91 113 148 76 54 44 148 146 374 439 549 704 853 1325 400 690 1103 1832 1440 1063 1174 1349 1408 1469 1642 1637 1579 1692 1957 1780 1925 2074 2116 2060 1757 1880 2211 2268
355 234 102 104 84 511 731 477 361 254 154 113 97 89 67 18 19 31 247 285 265 448 664 673 1109 363 598 1107 936 755 787 803 1013 1415 1074 1715 1570 1546 1633 1818 2085 2100 1792 1571 1499 2333 2350 2366 2463
160 21 25 102 275 504 676 445 374 303 272 193 124 74 23 22 29 48 85 112 198 332 461 552 277 155 52 31 412 909 954 1463 1609 1638 2094 1636 1967 1940 1752 1830 1818 1667 1711 1972 1764 1037 1597 1827 994
17 18 27 282 335 194 602 490 375 393 364 301 258 90 10 35 49 17 75 136 156 266 310 334 389 425 41 79 368 996 964 1271 1657 1894 2039 2053 2164 2044 1810 1917 1820 1766 1695 1470 1652 1641 1703 1584 1751
69 236 0 204 478 426 531 598 497 418 593 255 305 99 2 35 18 29 16 83 94 274 300 184 170 155 143 563 805 1092 1040 1209 1106 1558 2113 2238 1810 1823 2217 1841 2239 1754 1763 2145 2160 1916 2177 2045 1831
103 511 628 661 672 635 624 431 662 550 384 340 307 105 38 80 82 77 41 122 134 275 274 38 55 301 924 1472 1275 1300 1107 1012 1371 1514 1991 1898 1384 1746 2017 2043 2149 1982 1917 1558 1941 2218 2217 2182 1953
648 743 945 968 1003 855 452 639 525 359 408 387 176 162 119 195 212 265 157 185 86 275 172 24 98 1075 1359 1423 1508 1333 1306 1551 1454 1482 1815 1928 2286 1949 1962 2102 1784 1879 2127 2205 2128 2561 2318 2116 1678
931 886 1005 1042 1015 923 630 655 227 340 213 190 145 190 214 354 217 253 190 144 112 252 57 31 886 1148 1311 1439 1378 1208 1368 1216 1303 1190 1575 1760 2166 2180 2839 2139 2058 2198 2263 1775 1832 1812 1358 1283 1212
706 552 560 1059 1037 934 456 525 353 352 276 254 144 137 287 226 252 283 333 225 204 208 109 413 682 929 1167 815 736 1087 1346 1228 1227 1108 1074 1613 1741 2185 2044 1833 2165 3096 2207 2072 1541 1592 1687 1337 1088
424 159 91 535 953 973 718 564 448 407 347 212 203 105 127 269 297 428 379 152 109 271 248 709 801 963 1048 1204 1025 1341 1583 1185 1179 1160 996 1645 1727 1920 1938 1668 2299 2927 2248 2257 2218 2193 2442 2165 2208
210 36 1 45 723 878 790 503 711 498 458 436 164 269 310 379 480 445 371 89 74 283 266 536 859 1164 1415 1228 1455 1248 1205 1065 908 902 928 1409 1744 1831 1815 1802 2670 2626 2256 2211 2426 2743 2865 2584 2598
35 179 97 60 98 647 651 555 882 665 399 414 597 534 478 504 554 464 434 27 32 108 294 585 979 1102 1462 1083 773 918 870 829 787 677 829 1290 1530 1733 1988 2009 2431 2526 2605 2929 2992 2632 2526 2679 2716
1 84 128 73 115 388 280 395 521 1009 550 256 331 485 593 606 581 563 562 274 46 39 304 505 715 1038 1468 1018 980 788 672 335 288 422 850 1252 1466 1737 1505 3046 2404 3129 2655 3139 2960 3274 2815 3037 2666
15 54 34 77 257 381 257 272 547 1026 786 187 161 243 406 551 625 624 507 427 245 97 116 339 475 438 931 826 1065 1267 1014 1005 271 220 392 1059 1211 1448 2054 2739 3130 3182 2936 2619 2879 2983 2941 2657 2658
31 5 0 56 173 233 369 231 709 1093 1032 402 209 80 121 331 549 530 476 510 431 267 18 156 357 283 302 704 539 768 754 471 196 577 593 890 1329 1530 1819 2433 2668 2896 2699 2923 2660 2922 3005 2837 1889
12 0 0 0 67 126 194 255 172 825 1209 826 528 249 33 88 408 527 477 388 320 218 25 16 250 379 248 390 583 423 946 597 646 697 1201 1553 1856 1719 1712 2018 2511 2854 2346 2780 3142 3053 2773 2060 1887
3 2 4 6 31 206 79 292 199 547 725 1083 699 600 190 12 179 454 614 568 443 264 256 332 674 1036 1009 603 642 842 933 1136 920 1050 1192 1133 1182 1308 1741 2222 2643 2792 2832 3163 2983 2801 2129 1821 1193
0 31 57 52 98 265 145 176 313 263 379 576 920 603 507 71 18 255 475 621 608 554 519 560 802 1161 1088 945 494 684 995 1480 1607 1785 1362 1518 1273 1308 1707 2527 2900 2898 3054 2818 2700 1690 1220 832 476
0 8 64 144 280 293 140 81 269 101 52 62 439 619 574 311 0 96 359 517 554 573 654 678 819 1263 1156 894 700 921 1229 1275 1315 1470 1439 1445 1414 1473 2006 2610 2669 2751 2709 2245 1408 1015 519 251 9
0 41 39 53 166 188 153 94 85 56 126 13 351 624 506 384 54 37 197 415 554 636 711 752 900 1267 1356 1085 1125 1264 1587 1669 1367 1475 1706 1702 1909 1783 2478 2704 2585 2501 1983 1117 777 566 162 0 0
0 0 27 31 146 147 169 137 152 170 75 211 616 703 471 378 109 82 92 326 478 583 687 787 859 1194 1377 1319 1291 1365 1562 1786 1900 2001 2085 1988 1989 2490 2435 2805 2379 2097 1257 443 360 135 0 0 0
0 0 7 16 107 246 248 188 141 101 12 311 757 643 463 382 72 97 48 203 424 488 580 703 826 1091 1413 1492 1495 1595 1660 1819 1996 1982 2070 2144 2447 2684 3006 2784 2278 1493 582 166 135 3 0 0 0
0 0 0 17 96 117 245 233 38 0 0 368 745 275 408 177 22 35 78 225 441 486 570 707 810 1069 1369 1602 1787 1757 1780 1754 1819 2136 2109 2345 2603 2779 2953 2377 1819 850 209 75 5 0 0 0 0
CIN
-133 -65 -41 -12 0 -9 -1 0 -28 -1 0 -16 -26 -1 -39 -51 -2 -15 -1 0 0 0 -26 0 0 0 0 0 0 0 0 0 0 0 -2 0 0 0 0 0 0 0 0 0 0 -1 -6 -6 -7
-48 -86 -10 -1 -17 0 -4 -7 -5 -16 -9 -10 -24 -13 -13 -10 -113 -42 -5 0 0 0 -1 -1 -1 0 0 0 -2 0 0 0 0 -1 -1 -1 0 0 0 -1 0 0 0 0 0 -2 -16 -24 -20
-115 -30 0 0 -30 0 0 -6 -5 -3 -1 -7 -2 -39 -10 -20 -58 -28 -1 0 0 0 0 0 0 0 0 0 0 0 0 -1 0 0 0 0 0 0 0 0 0 0 0 0 0 0 -10 -13 -26
-33 -15 -18 0 0 -11 0 0 -7 0 -3 -94 -8 -35 -47 -28 -85 -33 -8 0 0 -1 0 -1 -2 0 0 -5 -10 0 -7 -6 -8 -9 -5 0 0 0 0 0 0 0 0 0 0 0 -7 -16 -21
-44 -4 0 0 -25 0 -1 0 0 -1 0 -19 -7 -27 -28 -26 -42 -14 -1 0 0 0 -12 0 -3 0 0 -6 -9 0 -8 -2 0 -1 0 0 -1 -1 0 -1 0 0 0 -7 -4 -5 -11 -21 -27
-17 -21 0 0 -6 0 0 0 0 -37 -2 -44 -41 -46 -44 -29 -27 -28 -3 -3 -1 -4 0 0 0 -10 -19 -12 -2 0 -7 -4 -3 0 0 0 0 -5 -9 -20 -30 -30 -23 -29 -33 -24 -29 -32 -37
-17 0 -2 0 -2 -1 0 0 -2 -9 -9 -11 -28 -29 -19 -48 -41 -29 -14 -2 -18 0 0 0 0 -19 0 0 0 0 0 0 -4 -8 -13 -12 -18 -26 -28 -31 -40 -37 -22 -24 -27 -31 -29 -37 -41
-36 0 -12 -19 -3 0 0 0 0 0 -3 -44 -42 -11 -32 -56 -48 -42 0 -2 0 0 0 0 0 0 0 0 0 -3 -12 -11 -3 -8 -11 -9 -23 -22 -23 -25 -26 -14 -7 -6 -8 -12 -15 -12 -25
-57 -2 -49 -58 -59 0 -2 0 -16 -12 -22 -26 -18 -28 -34 -81 -90 -56 -2 -1 -5 0 0 0 0 -12 -9 0 -6 -29 -44 -37 -34 -19 -45 -23 0 0 0 -20 -24 -19 -24 -31 -39 -17 -14 -17 -29
-14 0 0 -36 0 0 0 0 -19 -14 -22 -19 -14 -39 -86 -79 -82 -65 -18 -31 -15 -5 0 0 -5 -28 -57 -62 -25 -2 -3 0 0 -1 0 0 0 -1 -3 -17 -43 -46 -51 -40 -44 -81 -53 -62 0
-26 -6 -29 0 0 0 0 -7 -11 -1 -4 -12 -19 -65 -106 -84 -73 -79 -18 -9 -13 -8 -3 -11 -2 -4 -40 -31 -3 0 0 0 0 0 0 0 0 0 0 0 0 0 -25 0 -5 -7 0 0 0
-2 -2 0 -8 0 0 0 -1 -2 0 -1 -20 -18 -52 -45 -67 -98 -99 -104 -42 -17 -5 -5 -23 -28 -40 -33 0 0 0 0 0 0 0 0 0 0 0 0 0 0 0 0 0 0 0 0 0 0
-2 -1 -2 -6 -8 -2 -6 -1 -2 -5 -24 -15 -28 -67 -59 -20 -34 -35 -72 -22 -13 -9 -17 -60 -64 -36 0 0 0 0 0 0 0 0 -1 0 0 0 0 0 0 0 0 0 0 0 0 0 0
-2 -2 -8 -11 -15 -18 -12 -26 -16 -70 -22 -24 -59 -35 -37 -2 -13 -3 -11 -17 -50 -8 -30 -68 -65 -1 0 0 0 0 0 0 0 0 0 0 0 0 0 -1 0 0 0 0 0 0 0 0 0
-6 -3 -16 -11 -12 -11 -13 -28 -21 -115 -103 -72 -69 -28 -8 0 -8 -12 -17 -12 -71 -15 -39 -58 0 0 0 0 0 0 0 0 0 0 -5 -9 -1 0 -1 0 0 0 0 0 0 0 0 0 0
-1 0 0 -9 -16 -22 -23 -2 -103 -144 -124 -82 -77 -57 -6 -7 -5 -3 -4 -13 -49 -13 -46 -11 -1 0 0 -13 -16 0 0 0 0 0 0 -5 0 0 0 0 0 0 0 0 -1 0 0 0 -4
0 0 0 -1 -18 -6 -19 0 -105 -132 -114 -104 -69 -83 -67 -6 -5 0 0 -6 -17 -18 -21 -7 -5 0 0 -3 -1 -1 -3 -2 0 0 0 -9 -1 -8 0 0 0 0 0 0 0 0 0 0 0
0 0 0 -10 -3 -17 -4 -2 -70 -97 -75 -71 -105 -47 -20 -9 -3 0 0 -10 -22 -8 -24 -17 -2 0 0 0 -1 0 -1 -3 -2 -1 0 -8 -1 -8 -6 0 -1 0 0 0 0 -1 0 0 0
0 0 -13 -30 -9 -6 -5 -1 -2 -80 -87 -60 -33 -31 -17 -5 0 0 0 -82 -62 -25 -18 -12 -2 -1 0 0 -2 -4 -1 0 -4 -13 -24 -12 -6 -6 -5 0 0 0 0 0 0 0 0 0 0
-1 0 0 -9 -14 -7 0 -4 -7 -57 -91 -99 -82 -47 -23 -3 -3 0 0 -25 -110 -138 -31 -25 -21 -5 0 -1 -3 -13 -20 -41 -46 -51 -31 -11 -12 -11 -6 0 0 -2 0 0 -1 0 0 0 0
-8 -1 -3 -2 -7 -16 -8 0 -7 -44 -83 -154 -176 -139 -69 -44 -31 -25 -32 -36 -72 -150 -143 -54 -58 -63 -14 -9 -13 -18 -34 -34 -81 -97 -75 -9 -19 -19 -7 0 0 0 -2 0 0 0 0 0 0
-2 -9 0 -7 -3 0 -10 0 -5 -23 -63 -126 -197 -269 -224 -147 -84 -81 -94 -77 -73 -108 -311 -189 -90 -126 -117 -57 -74 -55 -31 -60 -100 -74 -75 -50 -22 -16 -4 0 0 -3 0 0 0 0 0 0 0
-27 0 0 0 0 0 0 0 0 -8 -45 -63 -117 -215 -324 -276 -163 -125 -134 -149 -167 -198 -361 -361 -193 -134 -169 -134 -115 -142 -71 -81 -76 -76 -41 -14 -5 -15 -22 -4 0 0 0 0 0 0 0 0 0
-5 -6 -2 -5 0 0 0 0 0 -1 -10 -28 -93 -136 -266 -380 -277 -174 -113 -129 -171 -246 -248 -202 -93 -55 -68 -149 -163 -138 -108 -62 -75 -64 -46 -42 -43 -43 -32 -4 0 0 0 0 0 0 -1 -8 -62
0 -1 0 0 0 0 -2 0 -3 -3 -20 -18 -46 -125 -191 -360 -402 -294 -229 -181 -179 -181 -186 -153 -107 -80 -103 -143 -236 -213 -155 -65 -47 -28 -42 -24 -43 -44 -39 -5 0 0 0 0 -1 -62 -114 -160 -194
0 0 0 0 0 0 -15 -4 0 -30 -61 -79 -32 -93 -162 -245 0 -347 -294 -249 -234 -221 -182 -151 -139 -105 -137 -193 -244 -209 -155 -117 -98 -76 -67 -56 -55 -55 -43 -15 -12 -3 -1 -24 -110 -151 -235 -298 -43
0 0 0 0 -1 0 0 -5 -14 -28 -53 -145 -59 -83 -177 -252 -383 -414 -358 -306 -267 -243 -209 -172 -157 -143 -152 -197 -204 -192 -141 -119 -108 -100 -78 -70 -53 -60 -25 -12 -16 -12 -54 -177 -228 -237 -334 0 0
0 0 0 0 -2 -3 0 0 0 -4 -23 -70 -58 -66 -187 -227 -345 -393 -386 -331 -297 -260 -216 -174 -171 -177 -177 -189 -202 -197 -172 -134 -109 -89 -85 -78 -66 -34 -27 -4 -25 -36 -150 -331 -325 -376 0 0 0
0 0 0 0 0 0 0 0 -1 -4 -72 -65 -46 -88 -170 -227 -341 -350 -376 -352 -312 -272 -235 -204 -184 -191 -192 -201 -201 -191 -171 -150 -131 -122 -107 -94 -52 -32 -11 -10 -26 -106 -298 -450 -425 -192 0 0 0
0 0 0 0 0 0 0 0 -11 0 0 -65 -69 -141 -155 -189 -313 -342 -319 -298 -287 -260 -238 -192 -190 -202 -217 -222 -209 -207 -194 -178 -166 -144 -125 -98 -69 -41 -17 -37 -73 -231 -439 -505 -237 0 0 0 0
Wind_Speed
13 12 4 5 5 4 7 8 16 9 8 4 4 7 10 9 7 8 12 12 12 11 11 10 8 11 10 11 11 11 9 9 9 9 10 10 11 11 12 11 13 13 12 11 11 10 10 10 9
10 7 5 4 3 3 9 11 13 9 15 15 12 11 6 7 6 14 13 12 12 10 10 10 8 11 10 9 11 10 9 8 10 10 11 11 12 12 12 12 11 12 11 10 9 9 8 7 6
9 5 6 4 3 10 10 10 11 19 15 7 7 10 6 5 13 7 14 14 12 10 9 10 9 9 9 11 11 11 10 9 10 11 11 10 11 10 10 10 10 10 9 8 7 6 6 5 3
6 6 6 3 12 9 11 11 17 14 9 7 11 10 8 4 5 7 12 13 12 10 10 10 9 11 10 12 9 8 10 9 9 10 11 10 8 9 8 8 8 8 6 6 5 4 4 4 3
6 4 4 8 12 9 8 11 10 6 9 9 8 6 7 7 8 15 12 11 12 10 9 10 10 10 11 10 7 9 10 8 7 8 11 9 8 7 8 7 6 6 5 4 4 3 3 3 4
5 5 2 8 11 8 6 7 6 8 10 10 10 10 4 11 13 10 11 10 9 10 9 10 12 10 10 8 7 9 9 8 9 9 9 8 7 6 5 4 3 4 3 3 4 5 5 4 4
7 6 7 4 11 8 8 7 6 7 9 7 12 8 6 11 13 12 11 7 6 5 8 9 10 10 7 5 6 9 9 9 8 7 5 5 4 3 3 1 2 2 3 4 4 4 5 6 7
6 5 3 1 3 15 8 5 3 4 8 10 10 8 11 17 19 13 10 12 9 9 8 8 7 8 5 10 8 9 7 7 5 4 3 2 3 3 4 7 1 7 7 7 6 6 7 6 7
4 6 4 5 1 14 11 9 6 5 11 3 4 4 21 20 16 16 10 8 9 7 8 7 9 6 6 5 8 8 6 4 4 4 2 8 3 4 3 7 6 7 6 6 6 6 5 5 9
8 5 7 4 9 9 10 7 10 8 11 7 9 18 23 20 15 15 13 12 11 11 9 8 7 8 6 6 5 5 4 4 5 5 4 3 5 5 5 1 3 4 5 5 3 3 6 11 3
3 7 5 4 6 10 11 11 7 12 9 11 16 20 24 22 17 15 16 13 11 11 8 8 7 5 6 6 4 3 2 3 4 3 4 4 4 4 4 3 3 6 3 3 2 1 3 5 5
4 4 5 8 6 8 9 10 7 5 9 11 16 21 23 22 17 14 11 9 12 10 9 9 7 6 5 5 3 4 3 3 1 5 2 4 3 5 6 5 6 3 5 4 3 3 4 5 5
3 8 6 7 6 7 8 7 7 6 2 12 17 21 22 20 19 18 14 10 10 10 9 8 8 6 5 4 4 1 2 3 4 1 4 5 5 5 4 5 5 6 5 5 4 4 4 5 4
6 8 11 9 9 8 6 8 6 5 6 14 17 21 21 19 18 15 15 15 11 10 10 10 9 7 6 3 3 3 2 3 1 1 6 4 2 4 5 3 5 4 6 5 5 5 5 5 5
11 10 9 8 10 6 5 9 4 10 10 15 18 19 19 18 18 16 14 14 11 11 11 11 9 7 6 5 4 3 3 1 1 3 4 6 5 4 7 5 5 6 4 3 3 4 3 4 4
10 9 11 12 9 6 7 10 11 13 14 15 16 18 18 18 18 16 17 14 14 10 10 11 8 9 7 5 4 3 2 1 0 1 2 5 6 4 3 5 6 6 4 6 5 5 6 5 5
9 10 7 9 12 6 12 8 13 15 15 15 17 18 16 16 17 16 16 15 14 13 12 12 9 8 8 5 5 4 3 4 1 2 2 6 5 6 5 5 6 6 6 7 6 6 6 5 6
9 13 7 6 10 11 9 5 13 17 18 18 17 18 18 19 20 19 17 16 14 14 13 12 10 8 7 5 4 4 4 4 3 1 2 3 4 6 6 4 5 4 5 5 6 6 6 5 6
7 8 8 4 3 10 11 8 15 17 17 19 21 21 21 21 19 19 18 17 15 15 15 14 12 9 7 7 6 5 5 4 3 3 1 2 4 5 4 6 5 2 4 5 5 5 4 6 7
14 11 11 4 3 11 8 10 11 19 19 18 20 21 22 21 20 20 20 19 18 17 16 15 13 12 9 7 5 3 2 2 3 3 2 0 3 5 5 6 4 3 3 3 6 6 7 5 5
16 14 10 11 7 12 9 15 13 17 18 18 19 20 21 22 22 22 21 20 19 18 18 16 15 12 11 9 6 4 4 5 5 4 3 4 3 4 4 5 4 2 5 5 5 5 8 7 5
19 14 11 7 10 8 5 8 14 18 21 21 20 20 21 22 22 21 21 21 20 19 18 17 16 14 12 12 9 8 6 5 2 2 1 3 2 4 3 4 4 3 4 3 3 4 6 6 6
18 6 11 10 11 12 11 8 6 16 17 23 23 22 21 22 23 23 22 21 21 19 18 17 17 15 14 13 12 9 10 6 6 4 2 3 3 3 3 5 3 1 4 2 4 5 6 3 6
17 8 8 9 11 12 15 8 8 13 16 20 23 23 22 22 22 22 22 21 19 19 18 17 17 16 15 15 14 13 10 9 6 5 5 5 3 2 2 4 1 1 2 3 3 4 4 6 6
19 18 11 11 11 11 7 8 15 3 6 9 23 25 24 22 22 22 22 21 20 21 20 17 18 17 16 17 16 14 13 12 10 8 7 5 5 3 2 3 2 2 1 1 3 4 4 4 5
26 22 13 11 13 12 7 8 6 2 4 6 13 24 24 23 21 22 24 22 21 21 20 19 18 17 16 16 16 14 14 10 9 9 7 6 5 4 1 4 4 1 3 4 4 4 3 3 3
23 26 22 13 8 12 12 12 12 14 1 7 15 24 25 23 22 22 23 22 21 21 21 20 18 17 16 16 14 14 13 13 10 9 7 7 6 5 5 5 2 4 5 5 5 4 3 2 2
23 21 22 12 18 14 13 10 8 9 2 8 15 23 23 22 22 21 21 21 20 20 19 20 19 17 16 16 14 12 13 12 11 10 11 9 6 5 5 4 5 6 6 5 3 4 4 3 2
21 20 21 18 15 11 13 12 13 3 4 11 16 21 23 23 21 20 19 19 19 19 19 19 18 18 16 15 14 13 13 13 12 11 11 9 8 7 6 6 7 7 6 4 2 3 3 3 3
26 23 26 16 20 14 11 7 8 2 2 11 18 19 20 21 20 19 19 19 18 18 18 18 17 17 16 15 14 15 13 13 13 12 11 10 9 8 8 9 8 7 6 4 3 1 3 3 2
Wind_Direction
162 174 182 229 235 272 96 94 117 125 102 100 77 109 91 18 2 120 124 140 140 132 127 117 102 107 108 109 108 105 104 112 112 107 100 106 103 94 95 92 89 92 92 88 86 86 85 77 69
166 168 226 264 262 81 79 110 127 128 127 121 99 129 84 75 60 120 134 141 137 135 123 120 119 115 113 119 117 113 103 101 105 104 100 96 89 89 91 91 90 89 85 86 85 89 87 84 79
180 246 269 267 11 47 85 112 105 117 142 115 123 63 56 76 127 121 126 140 142 132 127 117 129 114 113 110 98 99 94 83 89 87 85 102 91 92 98 94 84 88 90 89 89 85 85 84 97
193 193 220 311 72 61 74 96 129 126 113 77 96 86 94 55 98 117 143 142 136 144 121 126 125 115 112 97 96 101 91 86 91 85 80 78 88 84 77 76 75 75 69 69 67 68 61 34 354
228 252 212 73 81 80 76 108 136 135 124 147 142 109 93 113 132 145 142 147 144 136 124 127 102 100 88 93 100 89 96 86 80 105 96 93 84 77 61 59 59 57 45 24 11 6 21 3 343
241 272 243 73 94 105 104 129 134 112 124 123 116 124 87 131 139 165 142 184 130 128 126 128 105 96 104 108 104 108 108 99 86 80 84 86 83 76 59 40 25 37 20 335 321 332 329 324 324
278 275 28 21 102 137 125 136 140 129 135 139 131 116 117 144 150 159 141 160 72 120 132 136 125 116 106 107 116 97 93 91 75 70 75 79 79 70 62 325 303 328 314 287 290 302 307 320 316
285 268 151 106 96 99 128 129 100 152 87 108 153 159 161 159 165 140 172 131 135 181 133 119 92 107 131 131 95 92 83 80 83 83 60 18 218 175 197 251 251 321 311 297 301 308 299 296 288
254 245 64 55 235 109 139 137 105 91 138 103 109 153 141 147 141 154 135 157 166 150 135 135 135 130 138 118 108 132 123 117 178 183 80 243 11 20 312 60 347 352 351 326 328 337 317 292 254
252 288 38 31 66 133 157 144 130 150 139 141 126 109 139 149 161 145 167 160 167 156 148 140 141 132 155 130 130 118 117 65 43 38 15 353 26 24 323 331 313 311 310 277 267 281 266 241 341
155 359 24 101 89 132 137 135 145 145 173 163 157 150 155 153 170 172 173 172 159 155 150 148 143 153 159 107 149 142 127 118 114 73 353 36 348 26 39 7 43 4 151 326 264 223 312 355 344
225 53 68 99 126 127 147 129 149 171 63 145 149 162 160 167 162 186 138 185 161 156 153 159 139 153 127 150 175 132 149 117 136 69 13 58 11 21 20 37 320 18 14 351 353 11 10 346 354
184 104 99 116 124 113 137 142 115 118 158 148 148 167 169 169 168 176 190 159 158 164 158 155 150 152 148 199 110 180 137 124 69 87 69 16 20 19 11 23 12 348 3 21 342 4 3 329 334
120 126 121 140 136 153 144 142 185 123 143 138 158 171 172 174 168 183 169 177 177 169 165 156 162 163 164 177 164 140 126 128 105 30 38 22 326 23 8 48 34 7 23 16 6 4 328 325 330
140 140 143 167 169 155 170 172 147 128 144 158 165 178 177 172 175 182 174 176 171 186 169 160 171 173 170 167 189 169 161 133 104 55 60 24 1 28 318 36 28 29 31 5 68 323 0 333 327
207 201 201 158 189 145 228 113 131 148 156 165 175 181 182 180 183 184 180 166 193 167 184 173 182 169 175 156 198 187 138 204 137 34 31 20 10 14 326 10 32 8 28 25 21 10 353 10 348
201 223 226 157 202 149 230 101 149 160 166 170 182 181 187 196 196 187 187 185 180 182 179 183 186 186 175 167 181 193 177 237 245 296 6 39 32 35 338 10 37 351 31 25 11 357 357 353 345
197 226 200 250 161 216 211 250 159 176 180 179 186 190 193 200 200 190 194 192 186 185 184 187 193 200 193 188 198 212 219 230 233 282 25 12 36 25 346 13 11 1 3 29 10 352 355 319 359
305 248 250 199 140 221 245 241 165 187 197 184 183 190 197 197 192 189 193 195 192 190 189 191 197 195 200 193 203 203 224 210 241 254 311 315 20 23 11 6 18 17 351 4 5 350 3 339 5
246 239 243 257 229 226 259 244 196 185 202 195 193 190 195 192 189 192 193 197 200 193 195 196 205 198 204 196 216 263 289 249 311 300 291 297 17 16 360 359 353 44 321 21 13 3 338 48 13
230 239 242 261 162 227 272 253 188 187 199 200 199 197 198 196 192 191 193 198 199 200 197 200 204 206 207 222 204 205 234 236 233 213 215 104 13 354 2 18 12 356 304 25 354 4 2 346 12
229 213 255 226 226 255 209 293 180 185 197 198 199 197 195 196 195 188 194 198 202 202 198 202 205 207 207 206 223 232 256 250 199 244 70 292 332 338 21 7 5 355 347 11 10 30 338 347 355
232 186 220 235 242 272 217 253 250 177 196 202 202 198 196 192 192 189 190 192 200 199 199 200 204 210 217 205 227 214 230 235 232 243 255 273 242 285 347 349 350 36 313 38 9 1 14 5 348
217 198 216 237 252 246 240 233 248 174 220 201 200 196 196 190 192 195 189 189 196 198 200 200 202 209 210 212 208 221 239 238 250 228 273 267 276 296 81 343 359 340 337 25 44 44 40 20 14
202 201 212 215 217 243 115 235 254 166 150 202 193 194 190 188 189 190 190 192 193 197 199 199 200 206 209 209 211 213 222 229 240 245 251 292 277 283 29 294 259 302 31 94 75 78 71 40 19
210 219 230 209 237 219 152 239 214 126 52 206 203 186 183 187 185 188 189 191 192 197 199 201 196 203 203 207 210 212 214 223 227 229 260 262 269 272 2 250 266 234 165 103 120 128 75 54 46
199 218 227 243 220 275 176 223 260 249 268 228 187 173 179 186 182 186 188 188 191 196 198 201 201 201 203 206 206 209 209 222 233 241 236 240 244 260 223 248 222 172 139 134 155 91 107 82 36
221 209 222 225 239 221 231 231 251 180 291 178 176 173 175 182 181 183 187 185 190 194 196 200 201 203 204 206 204 207 210 215 222 228 234 249 260 234 238 210 172 160 146 150 190 166 107 84 73
205 207 219 219 230 230 236 208 223 247 321 184 173 173 174 179 181 182 184 181 189 190 194 197 201 201 204 205 205 210 211 212 216 223 226 230 225 214 201 190 166 158 147 155 126 80 109 103 108
204 207 208 225 200 247 284 204 106 37 276 177 168 171 174 178 179 178 180 178 185 192 191 193 198 202 203 201 204 206 210 209 215 220 219 219 211 197 194 173 165 153 155 163 179 184 107 144 143